Location: Unspecified
(0.0000°N, 0.0000°E)
Time: 17:05:14
(UTC+00:00)

Courier 1B Rocket - All Passes

Search period start: 16 April 2021 00:00
Search period end: 26 April 2021 00:00
Orbit: 920 x 1202 km, 28.2° (Epoch: 15 April)

Date Brightness Start Highest point End Pass type
(mag) Time Alt. Az. Time Alt. Az. Time Alt. Az.
16 Apr - 01:58:01 10° N 02:02:03 15° NNE 02:06:02 10° NE visible
16 Apr - 03:49:23 10° NW 03:56:40 42° NNE 04:03:39 10° E visible
16 Apr - 05:42:59 10° WNW 05:50:31 62° SSW 05:57:37 10° SE daylight
16 Apr - 07:39:37 10° WSW 07:44:27 19° SSW 07:49:05 10° SSE daylight
16 Apr - 15:20:02 10° SSW 15:25:23 29° SSE 15:30:52 10° E daylight
16 Apr - 17:12:29 10° WSW 17:18:51 75° NNW 17:25:36 10° NE daylight
16 Apr - 19:07:44 10° WNW 19:12:42 22° NNW 19:17:55 10° NNE visible
17 Apr - 00:59:06 10° N 01:00:12 10° NNE 01:01:19 10° NNE night (unlit)
17 Apr - 02:48:34 10° NNW 02:55:12 30° NNE 03:01:41 10° E visible
17 Apr - 04:41:26 10° WNW 04:49:14 90° NNE 04:56:40 10° ESE visible
17 Apr - 06:36:51 10° W 06:43:05 28° SSW 06:49:00 10° SSE daylight
17 Apr - 14:19:55 10° SSW 14:24:13 19° SSE 14:28:33 10° ESE daylight
17 Apr - 16:11:33 10° SW 16:17:48 72° SSE 16:24:21 10° ENE daylight
17 Apr - 18:05:45 10° W 18:11:23 31° NNW 18:17:19 10° NNE daylight
17 Apr - 20:05:23 10° NNW 20:05:57 10° NNW 20:06:31 10° NNW visible
18 Apr - 01:48:01 10° NNW 01:53:37 21° NNE 01:59:12 10° ENE visible
18 Apr - 03:40:09 10° NW 03:47:54 63° NNE 03:55:23 10° ESE visible
18 Apr - 05:34:35 10° W 05:41:45 42° SSW 05:48:34 10° SE visible
18 Apr - 07:32:59 10° SW 07:36:02 13° SSW 07:39:01 10° S daylight
18 Apr - 13:20:20 10° S 13:22:54 13° SSE 13:25:28 10° SE daylight
18 Apr - 15:10:51 10° SW 15:16:47 46° SSE 15:22:52 10° ENE daylight
18 Apr - 17:04:11 10° WSW 17:10:12 46° NNW 17:16:33 10° NE daylight
18 Apr - 19:00:59 10° NW 19:04:20 14° NNW 19:07:47 10° N visible
19 Apr - 00:47:53 10° N 00:51:57 15° NNE 00:56:02 10° NE night (unlit)
19 Apr - 02:39:09 10° NW 02:46:30 43° NNE 02:53:45 10° E visible
19 Apr - 04:32:43 10° WNW 04:40:25 62° SSW 04:47:49 10° SE visible
19 Apr - 06:29:21 10° WSW 06:34:30 19° SSW 06:39:28 10° SSE daylight
19 Apr - 14:10:21 10° SSW 14:15:43 29° SSE 14:21:05 10° E daylight
19 Apr - 16:02:55 10° WSW 16:09:09 72° NNW 16:15:36 10° NE daylight
19 Apr - 17:58:20 10° WNW 18:02:54 20° NNW 18:07:39 10° NNE daylight
19 Apr - 23:49:19 10° NNE 23:50:09 10° NNE 23:50:59 10° NNE night (unlit)
20 Apr - 01:38:24 10° NNW 01:45:02 30° NNE 01:51:42 10° E visible
20 Apr - 03:31:12 10° WNW 03:39:05 89° SSW 03:46:46 10° ESE visible
20 Apr - 05:26:35 10° W 05:33:02 28° SSW 05:39:15 10° SSE visible
20 Apr - 13:10:06 10° SSW 13:14:32 20° SSE 13:18:55 10° ESE daylight
20 Apr - 15:01:55 10° SW 15:08:09 74° SSE 15:14:28 10° ENE daylight
20 Apr - 16:56:17 10° W 17:01:38 29° NNW 17:07:13 10° NNE daylight
21 Apr - 00:37:57 10° NNW 00:43:30 21° NNE 00:49:07 10° ENE night (unlit)
21 Apr - 02:29:58 10° NW 02:37:43 64° NNE 02:45:25 10° ESE visible
21 Apr - 04:24:21 10° W 04:31:37 42° SSW 04:38:42 10° SE visible
21 Apr - 06:22:35 10° SW 06:26:04 13° SSW 06:29:28 10° S daylight
21 Apr - 12:10:17 10° S 12:13:12 13° SSE 12:16:06 10° SE daylight
21 Apr - 14:01:07 10° SW 14:07:08 47° SSE 14:13:06 10° ENE daylight
21 Apr - 15:54:38 10° W 16:00:32 44° NNW 16:06:34 10° NE daylight
21 Apr - 17:51:49 10° NW 17:54:33 13° NNW 17:57:22 10° N daylight
21 Apr - 23:37:58 10° N 23:41:52 15° NNE 23:45:51 10° NE night (unlit)
22 Apr - 01:29:02 10° NW 01:36:19 44° NNE 01:43:42 10° E visible
22 Apr - 03:22:32 10° WNW 03:30:15 61° SSW 03:37:52 10° SE visible
22 Apr - 05:19:05 10° WSW 05:24:27 20° SSW 05:29:41 10° SSE visible
22 Apr - 13:00:31 10° SSW 13:06:03 31° SSE 13:11:28 10° E daylight
22 Apr - 14:53:17 10° WSW 14:59:30 69° NNW 15:05:45 10° NE daylight
22 Apr - 16:48:56 10° WNW 16:53:11 19° NNW 16:57:31 10° NNE daylight
23 Apr - 00:28:23 10° NNW 00:34:53 31° NNE 00:41:34 10° E night (unlit)
23 Apr - 02:21:04 10° WNW 02:28:52 87° SSW 02:36:44 10° ESE visible
23 Apr - 04:16:23 10° W 04:22:55 29° SSW 04:29:21 10° SSE visible
23 Apr - 12:00:06 10° SSW 12:04:51 21° SSE 12:09:27 10° ESE daylight
23 Apr - 13:52:09 10° SW 13:58:31 76° SSE 14:04:45 10° ENE daylight
23 Apr - 15:46:45 10° W 15:51:58 28° NNW 15:57:15 10° NNE daylight
23 Apr - 23:28:03 10° NNW 23:33:24 21° NNE 23:38:56 10° ENE night (unlit)
24 Apr - 01:19:56 10° NW 01:27:30 66° NNE 01:35:18 10° ESE night (unlit)
24 Apr - 03:14:12 10° W 03:21:27 41° SSW 03:28:41 10° SE visible
24 Apr - 05:12:18 10° SW 05:16:01 14° SSW 05:19:42 10° S visible
24 Apr - 11:00:01 10° S 11:03:29 14° SSE 11:06:51 10° SE daylight
24 Apr - 12:51:15 10° SW 12:57:29 49° SSE 13:03:29 10° ENE daylight
24 Apr - 14:44:58 10° W 14:50:52 42° NNW 14:56:45 10° NE daylight
24 Apr - 16:42:37 10° NW 16:44:50 12° NNW 16:47:04 10° N daylight
24 Apr - 22:28:15 10° N 22:31:50 14° NNE 22:35:32 10° NE night (unlit)
25 Apr - 00:19:05 10° NW 00:26:09 45° NNE 00:33:31 10° E night (unlit)
25 Apr - 02:12:28 10° WNW 02:20:03 60° SSW 02:27:46 10° SE visible
25 Apr - 04:08:56 10° WSW 04:14:21 20° SSW 04:19:44 10° SSE visible
25 Apr - 10:01:13 10° SSE 10:01:55 10° SSE 10:02:37 10° SSE daylight
25 Apr - 11:50:31 10° SW 11:56:22 32° SSE 12:01:57 10° E daylight
25 Apr - 13:43:30 10° WSW 13:49:52 67° NNW 13:56:03 10° NE daylight
25 Apr - 15:39:25 10° WNW 15:43:29 18° NNW 15:47:35 10° NNE daylight
25 Apr - 23:18:32 10° NNW 23:24:47 30° NNE 23:31:20 10° E night (unlit)
